SWA720 KRDU-KBNA

Flight info

Callsign SWA720
Flight time 1h 16m
Altitude 32000
Route SHPRD4 SHPRD EDDDY SWFFT3
Aircraft B737/M-SDE2E3FGHIRWXY/LB1

Departure

Time 2026-05-07 01:11
Airport Raleigh-Durham International Airport (KRDU)

Arrival

Time 2026-05-07 02:27
Airport Nashville International Airport (KBNA)
Time Latitude Longitude Altitude Speed Heading
2026-05-07 00:46 35.87397 -78.78956 431 ft 0 kts 308°
2026-05-07 01:03 35.87390 -78.78945 433 ft 4 kts 299°
2026-05-07 01:03 35.87378 -78.78916 425 ft 4 kts 298°
2026-05-07 01:03 35.87365 -78.78887 429 ft 4 kts 305°
2026-05-07 01:04 35.87348 -78.78863 426 ft 4 kts 330°
2026-05-07 01:04 35.87330 -78.78857 430 ft 3 kts 43°
2026-05-07 01:04 35.87328 -78.78859 430 ft 1 kts 45°
2026-05-07 01:06 35.87336 -78.78849 421 ft 5 kts 45°
2026-05-07 01:06 35.87377 -78.78799 429 ft 11 kts 45°
2026-05-07 01:06 35.87435 -78.78727 427 ft 12 kts 45°
2026-05-07 01:07 35.87498 -78.78650 432 ft 14 kts 45°
2026-05-07 01:07 35.87571 -78.78559 427 ft 16 kts 45°
2026-05-07 01:07 35.87661 -78.78449 430 ft 20 kts 45°
2026-05-07 01:07 35.87759 -78.78327 428 ft 20 kts 45°
2026-05-07 01:08 35.87855 -78.78209 424 ft 19 kts 45°
2026-05-07 01:08 35.87934 -78.78112 419 ft 9 kts 45°
2026-05-07 01:08 35.87943 -78.78101 420 ft 0 kts 45°
2026-05-07 01:10 35.87963 -78.78073 429 ft 9 kts 60°
2026-05-07 01:10 35.87945 -78.77999 430 ft 10 kts 127°
2026-05-07 01:10 35.87906 -78.77973 424 ft 11 kts 180°
2026-05-07 01:11 35.87746 -78.78154 426 ft 70 kts 224°
2026-05-07 01:11 35.87181 -78.78815 448 ft 149 kts 222°
2026-05-07 01:11 35.86391 -78.79811 1065 ft 173 kts 226°
2026-05-07 01:11 35.85294 -78.81249 2423 ft 181 kts 225°
2026-05-07 01:12 35.84655 -78.82007 2723 ft 200 kts 225°
2026-05-07 01:12 35.83585 -78.83255 3320 ft 216 kts 225°
2026-05-07 01:12 35.82449 -78.84541 3997 ft 233 kts 225°
2026-05-07 01:12 35.81216 -78.85905 4826 ft 243 kts 225°
2026-05-07 01:13 35.80076 -78.87446 5851 ft 243 kts 247°
2026-05-07 01:13 35.79822 -78.89480 6906 ft 244 kts 274°
2026-05-07 01:13 35.80008 -78.91574 7959 ft 248 kts 275°
2026-05-07 01:13 35.80218 -78.93710 8950 ft 254 kts 275°
2026-05-07 01:14 35.80433 -78.95886 9942 ft 259 kts 275°
2026-05-07 01:14 35.80649 -78.98113 10628 ft 275 kts 275°
2026-05-07 01:14 35.80882 -79.00579 10863 ft 305 kts 275°
2026-05-07 01:14 35.81133 -79.03290 11067 ft 332 kts 275°
2026-05-07 01:15 35.81401 -79.06198 11511 ft 348 kts 275°
2026-05-07 01:15 35.81673 -79.09160 12426 ft 348 kts 275°
2026-05-07 01:15 35.81943 -79.12137 13269 ft 351 kts 275°
2026-05-07 01:15 35.82214 -79.15142 14008 ft 355 kts 275°
2026-05-07 01:16 35.82487 -79.18178 14738 ft 357 kts 275°
2026-05-07 01:16 35.82760 -79.21220 15512 ft 358 kts 275°
2026-05-07 01:16 35.83032 -79.24273 16242 ft 359 kts 276°
2026-05-07 01:16 35.83305 -79.27351 16940 ft 362 kts 276°
2026-05-07 01:17 35.83490 -79.30450 17619 ft 364 kts 271°
2026-05-07 01:17 35.83325 -79.33581 18283 ft 367 kts 266°
2026-05-07 01:17 35.83068 -79.36727 18835 ft 370 kts 266°
2026-05-07 01:17 35.82810 -79.39893 19377 ft 373 kts 266°
2026-05-07 01:18 35.82561 -79.43045 19908 ft 376 kts 266°
2026-05-07 01:18 35.82315 -79.46244 20538 ft 375 kts 266°
2026-05-07 01:18 35.82070 -79.49453 21062 ft 378 kts 266°
2026-05-07 01:18 35.81820 -79.52700 21539 ft 382 kts 265°
2026-05-07 01:19 35.81424 -79.55952 21994 ft 386 kts 261°
2026-05-07 01:19 35.80886 -79.59203 22455 ft 389 kts 260°
2026-05-07 01:19 35.80309 -79.62466 22915 ft 391 kts 259°
2026-05-07 01:19 35.79721 -79.65760 23324 ft 394 kts 259°
2026-05-07 01:20 35.79135 -79.69071 23711 ft 397 kts 260°
2026-05-07 01:20 35.78552 -79.72396 24057 ft 399 kts 260°
2026-05-07 01:20 35.77971 -79.75744 24413 ft 400 kts 260°
2026-05-07 01:20 35.77391 -79.79101 24757 ft 402 kts 260°
2026-05-07 01:21 35.76810 -79.82469 25204 ft 401 kts 260°
2026-05-07 01:21 35.76231 -79.85828 25583 ft 402 kts 260°
2026-05-07 01:21 35.75647 -79.89213 25877 ft 405 kts 260°
2026-05-07 01:21 35.75061 -79.92611 26160 ft 408 kts 260°
2026-05-07 01:22 35.74469 -79.96037 26429 ft 410 kts 259°
2026-05-07 01:22 35.73871 -79.99482 26712 ft 412 kts 259°
2026-05-07 01:22 35.73272 -80.02930 26976 ft 414 kts 259°
2026-05-07 01:22 35.72668 -80.06404 27254 ft 415 kts 259°
2026-05-07 01:23 35.72062 -80.09879 27633 ft 414 kts 259°
2026-05-07 01:23 35.71466 -80.13286 28083 ft 412 kts 259°
2026-05-07 01:23 35.70864 -80.16725 28561 ft 410 kts 259°
2026-05-07 01:23 35.70269 -80.20122 29303 ft 401 kts 259°
2026-05-07 01:24 35.69682 -80.23459 29972 ft 396 kts 259°
2026-05-07 01:24 35.69102 -80.26762 30449 ft 394 kts 259°
2026-05-07 01:24 35.68522 -80.30054 30904 ft 392 kts 259°
2026-05-07 01:24 35.67948 -80.33311 31433 ft 388 kts 259°
2026-05-07 01:25 35.67379 -80.36536 31928 ft 385 kts 259°
2026-05-07 01:25 35.66245 -80.42941 31964 ft 381 kts 259°
2026-05-07 01:26 35.65634 -80.49402 31973 ft 381 kts 269°
2026-05-07 01:26 35.66063 -80.55851 31988 ft 381 kts 274°
2026-05-07 01:27 35.66648 -80.62334 31978 ft 381 kts 274°
2026-05-07 01:27 35.67223 -80.68815 31969 ft 381 kts 274°
2026-05-07 01:28 35.67784 -80.75283 31976 ft 380 kts 274°
2026-05-07 01:28 35.68337 -80.81748 31982 ft 379 kts 274°
2026-05-07 01:29 35.68884 -80.88214 31992 ft 379 kts 274°
2026-05-07 01:29 35.69427 -80.94672 31997 ft 379 kts 274°
2026-05-07 01:30 35.69967 -81.01127 31989 ft 379 kts 274°
2026-05-07 01:30 35.70498 -81.07525 31989 ft 378 kts 274°
2026-05-07 01:31 35.71029 -81.13964 31969 ft 378 kts 274°
2026-05-07 01:31 35.71555 -81.20391 31967 ft 377 kts 274°
2026-05-07 01:32 35.72079 -81.26820 31975 ft 377 kts 274°
2026-05-07 01:32 35.72598 -81.33247 31978 ft 377 kts 273°
2026-05-07 01:33 35.73115 -81.39679 31977 ft 377 kts 273°
2026-05-07 01:33 35.73624 -81.46067 31980 ft 377 kts 273°
2026-05-07 01:34 35.74134 -81.52504 31979 ft 377 kts 273°
2026-05-07 01:34 35.74624 -81.58932 32048 ft 377 kts 271°
2026-05-07 01:35 35.74665 -81.65369 32054 ft 376 kts 268°
2026-05-07 01:35 35.74606 -81.71813 32040 ft 376 kts 268°
2026-05-07 01:36 35.74557 -81.78261 32018 ft 376 kts 268°
2026-05-07 01:36 35.74522 -81.84669 32006 ft 376 kts 268°
2026-05-07 01:37 35.74490 -81.91114 31993 ft 376 kts 268°
2026-05-07 01:37 35.74458 -81.97547 31976 ft 376 kts 268°
2026-05-07 01:38 35.74422 -82.03997 31964 ft 376 kts 268°
2026-05-07 01:38 35.74384 -82.10439 31956 ft 376 kts 268°
2026-05-07 01:39 35.74342 -82.16865 31971 ft 375 kts 268°
2026-05-07 01:39 35.74296 -82.23284 31956 ft 375 kts 268°
2026-05-07 01:40 35.74247 -82.29663 31983 ft 375 kts 268°
2026-05-07 01:40 35.74195 -82.36098 31962 ft 377 kts 268°
2026-05-07 01:41 35.74139 -82.42567 31959 ft 378 kts 268°
2026-05-07 01:41 35.74077 -82.49026 31968 ft 377 kts 268°
2026-05-07 01:42 35.74015 -82.55487 31985 ft 378 kts 268°
2026-05-07 01:42 35.73950 -82.61965 31981 ft 378 kts 268°
2026-05-07 01:43 35.73881 -82.68385 31978 ft 378 kts 268°
2026-05-07 01:43 35.73807 -82.74851 31968 ft 377 kts 268°
2026-05-07 01:44 35.73730 -82.81294 31963 ft 376 kts 267°
2026-05-07 01:44 35.73649 -82.87729 31977 ft 376 kts 267°
2026-05-07 01:45 35.73567 -82.94165 31968 ft 376 kts 267°
2026-05-07 01:45 35.73481 -83.00598 31976 ft 376 kts 267°
2026-05-07 01:46 35.73391 -83.07021 31978 ft 375 kts 267°
2026-05-07 01:46 35.73298 -83.13428 31980 ft 374 kts 267°
2026-05-07 01:47 35.73202 -83.19793 31987 ft 373 kts 266°
2026-05-07 01:47 35.73103 -83.26175 31998 ft 372 kts 266°
2026-05-07 01:48 35.73000 -83.32548 31970 ft 373 kts 266°
2026-05-07 01:48 35.72893 -83.38925 31975 ft 373 kts 266°
2026-05-07 01:49 35.72784 -83.45299 31972 ft 373 kts 266°
2026-05-07 01:49 35.72671 -83.51671 31975 ft 372 kts 266°
2026-05-07 01:50 35.72557 -83.58032 31985 ft 370 kts 265°
2026-05-07 01:50 35.72438 -83.64363 31971 ft 370 kts 265°
2026-05-07 01:51 35.72315 -83.70683 31969 ft 369 kts 265°
2026-05-07 01:51 35.72186 -83.76987 31974 ft 368 kts 265°
2026-05-07 01:52 35.72060 -83.83283 31974 ft 368 kts 265°
2026-05-07 01:52 35.71931 -83.89583 31978 ft 369 kts 265°
2026-05-07 01:53 35.71797 -83.95845 31985 ft 368 kts 265°
2026-05-07 01:53 35.71659 -84.02151 31979 ft 368 kts 265°
2026-05-07 01:54 35.71518 -84.08454 31976 ft 368 kts 265°
2026-05-07 01:54 35.71373 -84.14757 31977 ft 368 kts 265°
2026-05-07 01:55 35.71225 -84.21053 31975 ft 368 kts 265°
2026-05-07 01:55 35.71100 -84.26279 31971 ft 368 kts 265°
2026-05-07 01:56 35.70921 -84.33592 31971 ft 368 kts 265°
2026-05-07 01:56 35.70764 -84.39882 31925 ft 369 kts 265°
2026-05-07 01:56 35.70709 -84.42032 31730 ft 372 kts 265°
2026-05-07 01:57 35.70627 -84.45214 31493 ft 372 kts 264°
2026-05-07 01:57 35.70545 -84.48400 31256 ft 373 kts 264°
2026-05-07 01:57 35.70461 -84.51597 31016 ft 375 kts 264°
2026-05-07 01:57 35.70377 -84.54770 30780 ft 376 kts 264°
2026-05-07 01:58 35.70292 -84.57989 30546 ft 378 kts 264°
2026-05-07 01:58 35.70205 -84.61225 30315 ft 379 kts 264°
2026-05-07 01:58 35.70116 -84.64469 30084 ft 380 kts 264°
2026-05-07 01:58 35.70027 -84.67729 29835 ft 381 kts 264°
2026-05-07 01:59 35.69937 -84.70979 29563 ft 380 kts 264°
2026-05-07 01:59 35.69846 -84.74231 29290 ft 379 kts 264°
2026-05-07 01:59 35.69755 -84.77470 29019 ft 377 kts 264°
2026-05-07 01:59 35.69664 -84.80686 28752 ft 375 kts 264°
2026-05-07 02:00 35.69572 -84.83890 28495 ft 373 kts 265°
2026-05-07 02:00 35.69480 -84.87066 27842 ft 371 kts 265°
2026-05-07 02:00 35.69389 -84.90197 27174 ft 363 kts 265°
2026-05-07 02:00 35.69298 -84.93278 26464 ft 358 kts 265°
2026-05-07 02:01 35.69208 -84.96316 25767 ft 354 kts 265°
2026-05-07 02:01 35.69117 -84.99321 25055 ft 350 kts 265°
2026-05-07 02:01 35.69026 -85.02305 24340 ft 348 kts 266°
2026-05-07 02:01 35.68935 -85.05283 23647 ft 346 kts 266°
2026-05-07 02:02 35.68845 -85.08194 22820 ft 345 kts 266°
2026-05-07 02:02 35.68754 -85.11125 22086 ft 340 kts 266°
2026-05-07 02:02 35.68664 -85.14018 21387 ft 335 kts 266°
2026-05-07 02:02 35.68574 -85.16866 20702 ft 330 kts 266°
2026-05-07 02:03 35.68473 -85.19665 20046 ft 325 kts 264°
2026-05-07 02:03 35.68120 -85.22349 19837 ft 313 kts 258°
2026-05-07 02:03 35.67649 -85.24931 19666 ft 309 kts 257°
2026-05-07 02:03 35.67146 -85.27541 19489 ft 317 kts 257°
2026-05-07 02:04 35.66635 -85.30199 19295 ft 319 kts 257°
2026-05-07 02:04 35.66130 -85.32846 19061 ft 318 kts 257°
2026-05-07 02:04 35.65632 -85.35491 18892 ft 318 kts 258°
2026-05-07 02:04 35.65136 -85.38145 18713 ft 318 kts 258°
2026-05-07 02:05 35.64642 -85.40799 18536 ft 318 kts 258°
2026-05-07 02:05 35.64150 -85.43449 18376 ft 318 kts 258°
2026-05-07 02:05 35.63661 -85.46092 18169 ft 316 kts 258°
2026-05-07 02:05 35.63174 -85.48720 17946 ft 315 kts 258°
2026-05-07 02:06 35.62687 -85.51350 17715 ft 314 kts 257°
2026-05-07 02:06 35.62205 -85.53941 17514 ft 314 kts 257°
2026-05-07 02:06 35.61720 -85.56555 17333 ft 313 kts 257°
2026-05-07 02:06 35.61236 -85.59160 17155 ft 313 kts 257°
2026-05-07 02:07 35.60750 -85.61772 16969 ft 313 kts 257°
2026-05-07 02:07 35.59774 -85.67006 16607 ft 315 kts 257°
2026-05-07 02:07 35.59284 -85.69630 16424 ft 316 kts 257°
2026-05-07 02:08 35.58790 -85.72269 16225 ft 317 kts 257°
2026-05-07 02:08 35.58295 -85.74914 16043 ft 318 kts 257°
2026-05-07 02:08 35.57798 -85.77557 15865 ft 318 kts 257°
2026-05-07 02:08 35.57301 -85.80210 15679 ft 319 kts 257°
2026-05-07 02:09 35.56802 -85.82865 15492 ft 319 kts 257°
2026-05-07 02:09 35.56301 -85.85524 15311 ft 319 kts 257°
2026-05-07 02:09 35.56019 -85.88201 15115 ft 315 kts 270°
2026-05-07 02:09 35.56397 -85.90795 14917 ft 304 kts 281°
2026-05-07 02:10 35.57162 -85.93207 14535 ft 304 kts 292°
2026-05-07 02:10 35.58390 -85.95345 14175 ft 310 kts 303°
2026-05-07 02:10 35.59846 -85.97326 13787 ft 315 kts 306°
2026-05-07 02:10 35.61362 -85.99293 13349 ft 318 kts 306°
2026-05-07 02:11 35.62883 -86.01277 12931 ft 319 kts 306°
2026-05-07 02:11 35.64388 -86.03270 12516 ft 318 kts 306°
2026-05-07 02:11 35.65883 -86.05266 12118 ft 317 kts 306°
2026-05-07 02:11 35.67373 -86.07264 11769 ft 315 kts 306°
2026-05-07 02:12 35.68848 -86.09241 11456 ft 313 kts 306°
2026-05-07 02:12 35.70176 -86.11316 11145 ft 303 kts 292°
2026-05-07 02:12 35.70858 -86.13712 10858 ft 292 kts 278°
2026-05-07 02:12 35.70996 -86.16148 10566 ft 281 kts 268°
2026-05-07 02:13 35.70945 -86.18513 10283 ft 272 kts 266°
2026-05-07 02:13 35.70866 -86.20805 10005 ft 263 kts 265°
2026-05-07 02:13 35.70791 -86.22956 9868 ft 248 kts 265°
2026-05-07 02:13 35.70719 -86.25076 9508 ft 246 kts 266°
2026-05-07 02:14 35.70653 -86.27156 9236 ft 242 kts 266°
2026-05-07 02:14 35.70588 -86.29233 8994 ft 243 kts 266°
2026-05-07 02:14 35.70526 -86.31310 8745 ft 243 kts 266°
2026-05-07 02:14 35.70465 -86.33393 8500 ft 244 kts 267°
2026-05-07 02:15 35.70404 -86.35477 8255 ft 244 kts 267°
2026-05-07 02:15 35.70344 -86.37562 8009 ft 244 kts 267°
2026-05-07 02:15 35.70284 -86.39648 7765 ft 243 kts 267°
2026-05-07 02:15 35.70224 -86.41733 7522 ft 243 kts 268°
2026-05-07 02:16 35.70164 -86.43809 7283 ft 243 kts 268°
2026-05-07 02:16 35.70104 -86.45889 7022 ft 243 kts 268°
2026-05-07 02:16 35.70045 -86.47965 6785 ft 242 kts 268°
2026-05-07 02:16 35.69985 -86.49989 6544 ft 237 kts 268°
2026-05-07 02:17 35.69926 -86.51987 6295 ft 229 kts 268°
2026-05-07 02:17 35.69869 -86.53899 6053 ft 219 kts 268°
2026-05-07 02:17 35.69859 -86.55725 5878 ft 209 kts 277°
2026-05-07 02:17 35.70173 -86.57465 5757 ft 207 kts 283°
2026-05-07 02:18 35.70739 -86.59095 5630 ft 212 kts 307°
2026-05-07 02:18 35.71915 -86.60226 5533 ft 218 kts 324°
2026-05-07 02:18 35.73229 -86.61193 5388 ft 221 kts 325°
2026-05-07 02:18 35.74358 -86.62436 5248 ft 218 kts 305°
2026-05-07 02:19 35.75290 -86.63907 5171 ft 216 kts 306°
2026-05-07 02:19 35.76207 -86.65345 5173 ft 214 kts 306°
2026-05-07 02:19 35.77134 -86.66799 5114 ft 218 kts 306°
2026-05-07 02:19 35.78070 -86.68277 5030 ft 220 kts 306°
2026-05-07 02:20 35.79011 -86.69767 4926 ft 219 kts 306°
2026-05-07 02:20 35.79941 -86.71248 4826 ft 217 kts 306°
2026-05-07 02:20 35.80912 -86.72634 4700 ft 216 kts 322°
2026-05-07 02:20 35.82303 -86.73239 4692 ft 216 kts 350°
2026-05-07 02:21 35.83837 -86.73405 4580 ft 225 kts 354°
2026-05-07 02:21 35.85409 -86.73518 4484 ft 228 kts 355°
2026-05-07 02:21 35.86986 -86.73633 4373 ft 225 kts 355°
2026-05-07 02:21 35.88538 -86.73752 4261 ft 222 kts 355°
2026-05-07 02:22 35.90069 -86.73874 4160 ft 219 kts 355°
2026-05-07 02:22 35.91594 -86.73998 4044 ft 219 kts 355°
2026-05-07 02:22 35.93074 -86.74023 3960 ft 206 kts
2026-05-07 02:22 35.94430 -86.73575 3698 ft 196 kts 18°
2026-05-07 02:23 35.95685 -86.73048 3450 ft 184 kts 18°
2026-05-07 02:23 35.96863 -86.72562 3217 ft 172 kts 18°
2026-05-07 02:23 35.97945 -86.72124 3020 ft 160 kts 18°
2026-05-07 02:23 35.98974 -86.71709 2936 ft 156 kts 18°
2026-05-07 02:24 36.00020 -86.71289 2901 ft 158 kts 18°
2026-05-07 02:24 36.01035 -86.70881 2792 ft 145 kts 18°
2026-05-07 02:24 36.01948 -86.70514 2582 ft 131 kts 18°
2026-05-07 02:24 36.02799 -86.70171 2408 ft 126 kts 18°
2026-05-07 02:25 36.03630 -86.69837 2242 ft 127 kts 18°
2026-05-07 02:25 36.04482 -86.69494 2079 ft 129 kts 17°
2026-05-07 02:25 36.05332 -86.69153 1884 ft 127 kts 18°
2026-05-07 02:25 36.06174 -86.68814 1729 ft 128 kts 17°
2026-05-07 02:26 36.07036 -86.68467 1543 ft 131 kts 17°
2026-05-07 02:26 36.07905 -86.68118 1349 ft 131 kts 17°
2026-05-07 02:26 36.08768 -86.67771 1169 ft 132 kts 17°
2026-05-07 02:26 36.09642 -86.67420 974 ft 132 kts 17°
2026-05-07 02:27 36.10519 -86.67064 791 ft 134 kts 14°
2026-05-07 02:27 36.11386 -86.66737 629 ft 127 kts 17°
2026-05-07 02:27 36.12118 -86.66441 574 ft 91 kts 18°
2026-05-07 02:27 36.12531 -86.66269 567 ft 44 kts 18°
2026-05-07 02:28 36.12788 -86.66167 561 ft 20 kts
2026-05-07 02:28 36.12818 -86.66284 566 ft 11 kts 230°
2026-05-07 02:28 36.12749 -86.66319 561 ft 11 kts 198°
2026-05-07 02:28 36.12679 -86.66347 568 ft 10 kts 198°
2026-05-07 02:29 36.12605 -86.66378 568 ft 13 kts 198°
2026-05-07 02:29 36.12506 -86.66417 571 ft 17 kts 198°
2026-05-07 02:29 36.12389 -86.66464 566 ft 18 kts 198°
2026-05-07 02:29 36.12286 -86.66529 569 ft 17 kts 249°
2026-05-07 02:30 36.12313 -86.66667 572 ft 16 kts 288°
2026-05-07 02:30 36.12348 -86.66798 572 ft 16 kts 288°
2026-05-07 02:30 36.12408 -86.66905 570 ft 15 kts 314°
2026-05-07 02:30 36.12494 -86.66950 571 ft 14 kts 27°
2026-05-07 02:31 36.12579 -86.66888 570 ft 14 kts 31°
2026-05-07 02:31 36.12662 -86.66832 574 ft 13 kts 27°
2026-05-07 02:31 36.12742 -86.66781 568 ft 13 kts 27°
2026-05-07 02:31 36.12803 -86.66760 571 ft 6 kts 315°
2026-05-07 02:32 36.12800 -86.66809 568 ft 6 kts 265°
2026-05-07 02:32 36.12801 -86.66850 568 ft 0 kts 271°